AD8IZ-13 Weather Reports


time (UTC)temp
C
wind
direction
speed
KPH
gust
KPH
rain 1hr
cm
rain 24hr
cm
rain mn
cm
humidity
%
barometer
mb
20260508135520 12 163 1.6 4.8 0.00 0.00 0.00 69 1014.0
20260508134521 12 181 3.2 8.0 0.00 0.00 0.00 67 1014.0
20260508133517 12 188 1.6 6.4 0.00 0.00 0.00 68 1014.0
20260508132518 11 192 1.6 8.0 0.00 0.00 0.00 69 1013.9
20260508131521 11 182 1.6 4.8 0.00 0.00 0.00 71 1014.0
20260508130521 10 163 3.2 6.4 0.00 0.00 0.00 71 1014.0
20260508125520 10 170 1.6 4.8 0.00 0.00 0.00 74 1014.0
20260508124519 10 179 0.0 3.2 0.00 0.00 0.00 74 1013.9
20260508123519 9 189 1.6 6.4 0.00 0.00 0.00 75 1014.0
20260508122520 8 204 1.6 6.4 0.00 0.00 0.00 75 1014.0
20260508121518 8 202 0.0 3.2 0.00 0.00 0.00 77 1014.1
20260508120520 7 214 1.6 8.0 0.00 0.00 0.00 79 1014.1
20260508115519 7 138 1.6 4.8 0.00 0.00 0.00 83 1014.1
20260508114519 6 110 1.6 4.8 0.00 0.00 0.00 89 1014.1
20260508113521 5 89 0.0 3.2 0.00 0.00 0.00 93 1014.0
20260508112517 5 67 0.0 3.2 0.00 0.00 0.00 94 1013.9
20260508111520 4 0.0 0.0 0.00 0.00 0.00 94 1013.9
20260508110520 4 29 1.6 3.2 0.00 0.00 0.00 94 1013.7
20260508105520 3 13 0.0 3.2 0.00 0.00 0.00 95 1013.7
20260508104518 3 28 3.2 4.8 0.00 0.00 0.00 94 1013.7
20260508103518 3 31 3.2 4.8 0.00 0.00 0.00 94 1013.5
20260508102518 3 20 3.2 4.8 0.00 0.00 0.00 94 1013.4
20260508101521 3 25 4.8 6.4 0.00 0.00 0.00 94 1013.4
20260508100519 3 28 4.8 4.8 0.00 0.00 0.00 94 1013.3
20260508095519 3 27 3.2 4.8 0.00 0.00 0.00 94 1013.4
20260508094519 3 27 4.8 4.8 0.00 0.00 0.00 93 1013.4
20260508093519 3 33 3.2 4.8 0.00 0.00 0.00 93 1013.4
20260508092520 4 31 3.2 6.4 0.00 0.00 0.00 93 1013.5
20260508091522 4 30 3.2 4.8 0.00 0.00 0.00 93 1013.5
20260508090519 4 16 0.0 4.8 0.00 0.00 0.00 92 1013.6
20260508085519 5 19 3.2 4.8 0.00 0.00 0.00 92 1013.5
20260508084519 5 24 3.2 4.8 0.00 0.00 0.00 91 1013.5
20260508083520 5 0.0 0.0 0.00 0.00 0.00 90 1013.4
20260508082519 5 0.0 0.0 0.00 0.00 0.00 90 1013.4
20260508081522 6 0.0 0.0 0.00 0.00 0.00 89 1013.4
20260508080520 6 0.0 0.0 0.00 0.00 0.00 88 1013.4
20260508075520 7 0.0 0.0 0.00 0.00 0.00 87 1013.4
20260508074518 7 93 0.0 1.6 0.00 0.00 0.00 87 1013.4
20260508073518 7 47 1.6 4.8 0.00 0.00 0.00 85 1013.5
20260508072518 7 94 1.6 4.8 0.00 0.00 0.00 85 1013.6
20260508071521 7 96 1.6 3.2 0.00 0.00 0.00 85 1013.7
20260508070521 8 115 1.6 3.2 0.00 0.00 0.00 83 1013.8
20260508065518 8 51 1.6 3.2 0.00 0.00 0.00 81 1013.8
20260508064519 8 80 0.0 0.0 0.00 0.00 0.00 78 1013.9
20260508063519 8 0.0 0.0 0.00 0.00 0.00 78 1013.9
20260508062519 7 12 1.6 3.2 0.00 0.00 0.00 79 1013.8
20260508061522 7 0.0 0.0 0.00 0.00 0.00 79 1013.8
20260508060519 7 29 1.6 3.2 0.00 0.00 0.00 79 1013.6
20260508055519 7 48 1.6 3.2 0.00 0.00 0.00 80 1013.4
20260508054520 7 110 0.0 3.2 0.00 0.00 0.00 81 1013.5
20260508053519 7 60 1.6 4.8 0.00 0.00 0.00 82 1013.6
20260508052517 6 43 1.6 4.8 0.00 0.00 0.00 85 1013.6
20260508051520 6 190 1.6 3.2 0.00 0.00 0.00 88 1013.7
20260508050523 6 0.0 0.0 0.00 0.00 0.00 89 1013.8
20260508045520 6 0.0 0.0 0.00 0.00 0.00 89 1013.8
20260508044517 6 96 1.6 3.2 0.00 0.00 0.00 90 1013.9
20260508043518 5 94 0.0 1.6 0.00 0.00 0.00 90 1013.9
20260508042521 5 0.0 0.0 0.00 0.00 0.00 89 1013.9
20260508041521 5 0.0 0.0 0.00 0.00 0.00 89 1013.8
20260508040521 5 0.0 0.0 0.00 0.00 0.00 89 1013.8
20260508035520 5 99 0.0 1.6 0.00 0.00 0.00 89 1013.7
20260508034518 5 0.0 0.0 0.00 0.00 0.00 89 1013.7
20260508033519 5 0.0 0.0 0.00 0.00 0.00 88 1013.7
20260508032522 5 0.0 0.0 0.00 0.00 0.00 88 1013.6
20260508031523 5 96 0.0 1.6 0.00 0.00 0.00 87 1013.7
20260508030519 5 0.0 0.0 0.00 0.00 0.00 86 1013.7
20260508025519 5 0.0 0.0 0.00 0.00 0.00 85 1013.7
20260508024519 6 0.0 0.0 0.00 0.00 0.00 83 1013.7
20260508023522 6 0.0 0.0 0.00 0.00 0.00 82 1013.6
20260508022520 6 50 0.0 3.2 0.00 0.00 0.00 81 1013.6
20260508021520 7 59 0.0 1.6 0.00 0.00 0.00 79 1013.7
20260508020521 7 55 0.0 3.2 0.00 0.00 0.00 78 1013.6
20260508015517 7 101 1.6 3.2 0.00 0.00 0.00 76 1013.6
20260508014519 7 51 1.6 3.2 0.00 0.00 0.00 73 1013.5
20260508013523 8 50 1.6 3.2 0.00 0.00 0.00 72 1013.4
20260508012521 8 129 1.6 3.2 0.00 0.00 0.00 70 1013.3
20260508011518 8 0.0 0.0 0.00 0.00 0.00 68 1013.2
20260508010520 9 0.0 0.0 0.00 0.00 0.00 67 1013.2
20260508005518 10 0.0 0.0 0.00 0.00 0.00 63 1013.1
20260508004518 11 0.0 0.0 0.00 0.00 0.00 60 1013.0
20260508003522 11 0.0 0.0 0.00 0.00 0.00 56 1012.9
20260508002519 12 342 0.0 3.2 0.00 0.00 0.00 53 1012.8
20260508001524 12 0.0 0.0 0.00 0.00 0.00 51 1012.7
20260508000519 13 345 0.0 3.2 0.00 0.00 0.00 49 1012.6
20260507235519 13 201 0.0 4.8 0.00 0.00 0.00 48 1012.6
20260507234520 13 316 0.0 3.2 0.00 0.00 0.00 48 1012.6
20260507233519 13 321 1.6 6.4 0.00 0.00 0.00 47 1012.5
20260507232520 15 296 1.6 6.4 0.00 0.00 0.00 46 1012.4
20260507231520 15 291 1.6 4.8 0.00 0.00 0.00 45 1012.4
20260507230517 14 287 1.6 9.7 0.00 0.00 0.00 46 1012.4
20260507225517 14 280 1.6 8.0 0.00 0.00 0.00 46 1012.5
20260507224524 14 291 1.6 8.0 0.00 0.00 0.00 46 1012.6
20260507223521 15 315 3.2 9.7 0.00 0.00 0.00 46 1012.5
20260507222518 15 313 1.6 8.0 0.00 0.00 0.00 46 1012.7
20260507221518 15 304 3.2 9.7 0.00 0.00 0.00 45 1012.6
20260507220518 14 313 3.2 6.4 0.00 0.00 0.00 46 1012.7
20260507215518 14 276 1.6 8.0 0.00 0.00 0.00 47 1012.5
20260507214520 14 298 3.2 9.7 0.00 0.00 0.00 46 1012.4
20260507213519 15 319 4.8 9.7 0.00 0.00 0.00 46 1012.3
20260507212519 15 327 4.8 11.3 0.00 0.00 0.00 46 1012.2
20260507211521 15 322 3.2 8.0 0.00 0.00 0.00 47 1012.2
20260507210519 15 335 4.8 12.9 0.00 0.00 0.00 47 1012.2
20260507205519 15 321 4.8 12.9 0.00 0.00 0.00 47 1012.0
20260507204520 15 334 3.2 9.7 0.00 0.00 0.00 48 1012.1
20260507203521 15 331 4.8 9.7 0.00 0.00 0.00 47 1011.9
20260507202520 15 325 4.8 9.7 0.00 0.00 0.00 48 1012.0
20260507201517 15 309 4.8 14.5 0.00 0.00 0.00 49 1012.2
20260507200518 15 297 1.6 8.0 0.00 0.00 0.00 49 1012.1
20260507195521 15 318 3.2 11.3 0.00 0.00 0.00 48 1012.1
20260507194522 15 322 4.8 9.7 0.00 0.00 0.00 49 1012.2
20260507193518 15 333 3.2 14.5 0.00 0.00 0.00 50 1012.3
20260507192518 15 314 3.2 11.3 0.00 0.00 0.00 50 1012.2
20260507191518 15 326 4.8 11.3 0.00 0.00 0.00 49 1012.4
20260507190519 15 334 4.8 12.9 0.00 0.00 0.00 51 1012.4
20260507185521 15 328 3.2 6.4 0.00 0.00 0.00 52 1012.4
20260507184519 15 310 4.8 9.7 0.00 0.00 0.00 52 1012.4
20260507183519 15 321 4.8 11.3 0.00 0.00 0.00 51 1012.5
20260507182519 15 304 3.2 9.7 0.00 0.00 0.00 53 1012.5
20260507181520 15 320 3.2 11.3 0.00 0.00 0.00 52 1012.4
20260507180520 14 260 3.2 9.7 0.00 0.00 0.00 53 1012.5
20260507175520 14 293 4.8 12.9 0.00 0.00 0.00 52 1012.6
20260507174522 14 312 3.2 11.3 0.00 0.00 0.00 53 1012.8
20260507173522 13 300 3.2 12.9 0.00 0.00 0.00 52 1013.0
20260507172520 13 316 4.8 9.7 0.00 0.00 0.00 50 1013.1
20260507171517 13 309 3.2 11.3 0.00 0.00 0.00 53 1013.2
20260507170518 14 313 4.8 12.9 0.00 0.00 0.00 51 1013.2
20260507165521 13 291 3.2 12.9 0.00 0.00 0.00 52 1013.3
20260507164519 13 311 3.2 8.0 0.00 0.00 0.00 50 1013.4
20260507163518 13 307 3.2 12.9 0.00 0.00 0.00 52 1013.4
20260507162518 13 314 4.8 11.3 0.00 0.00 0.00 53 1013.4
20260507161519 13 320 4.8 11.3 0.00 0.00 0.00 52 1013.5
20260507160521 13 290 3.2 12.9 0.00 0.00 0.00 55 1013.4
20260507155519 13 317 4.8 12.9 0.00 0.00 0.00 53 1013.4
20260507154519 13 287 3.2 9.7 0.00 0.00 0.00 54 1013.3
20260507153519 13 322 3.2 14.5 0.00 0.00 0.00 52 1013.2
20260507151519 12 338 3.2 9.7 0.00 0.00 0.00 55 1013.3
20260507150520 12 331 3.2 9.7 0.00 0.00 0.00 56 1013.4
20260507145520 12 334 3.2 8.0 0.00 0.00 0.00 55 1013.6
20260507144520 12 340 3.2 8.0 0.00 0.00 0.00 56 1013.6
20260507143520 12 320 1.6 8.0 0.00 0.00 0.00 59 1013.7
20260507142517 11 343 1.6 8.0 0.00 0.00 0.00 61 1013.8
20260507141526 11 344 3.2 6.4 0.00 0.00 0.00 61 1013.9
20260507140527 11 300 1.6 4.8 0.00 0.00 0.00 63 1014.0